Change the Weather History Date:

Sunday, March 2, 2014

  Actual Average (KOLM) Record (KOLM)
Temperature  
Mean Temperature 44 °F 42 °F  
Max Temperature 48 °F 52 °F 63 °F (1981)
Min Temperature 39 °F 34 °F 11 °F (1989)
Degree Days  
Heating Degree Days 22 22  
Month to date heating degree days 45  
Since 1 July heating degree days 3767  
Cooling Degree Days 0 0  
Month to date cooling degree days 0  
Year to date cooling degree days 0  
Moisture  
Dew Point 42 °F    
Average Humidity 93    
Maximum Humidity 100    
Minimum Humidity 87    
Precipitation  
Precipitation 0.14 in 0.19 in 1.41 in (1987)
Month to date precipitation 0.38  
Year to date precipitation 13.49  
Sea Level Pressure  
Sea Level Pressure 29.68 in    
Wind  
Wind Speed 8 mph (South)    
Max Wind Speed 20 mph    
Max Gust Speed 29 mph    
Visibility 8 miles    
Events Rain    
T = Trace of Precipitation, MM = Missing Value Source: NWS Daily Summary

Daily Weather History Graph

Daily Weather History Graph

Search for Another Location

Airport or City:

Trip Planner

Search our weather history database for the weather conditions in past years. The results will help you decide how hot, cold, wet, or windy it might be!

Date:

Astronomy

Mar. 02, 2014 Rise Set
Actual Time 6:49 AM PST 5:59 PM PST
Civil Twilight 6:19 AM PST 6:29 PM PST
Nautical Twilight 5:44 AM PST 7:04 PM PST
Astronomical Twilight 5:09 AM PST 7:39 PM PST
Moon 7:16 AM PST (3/2) 8:11 PM PST (3/2)
Length of Visible Light 12h 10m
Length of Day
11h 09m
Waxing Crescent, 3% of the Moon is Illuminated
Mar 2
Waxing Crescent
Mar 8
First Quarter
Mar 16
Full
Mar 23
Last Quarter
Mar 30
New

Hourly Weather History & Observations

Time (PST) Temp. Windchill Dew Point Humidity Pressure Visibility Wind Dir Wind Speed Gust Speed Precip Events Conditions
12:15 AM 41.0 °F 37.1 °F 39.2 °F 93% 29.73 in 10.0 mi SSE 5.8 mph - N/A   Overcast
12:35 AM 41.0 °F 36.4 °F 39.2 °F 93% 29.74 in 9.0 mi South 6.9 mph - N/A   Overcast
12:55 AM 41.0 °F 35.8 °F 39.2 °F 93% 29.74 in 9.0 mi South 8.1 mph - N/A   Overcast
1:15 AM 41.0 °F 36.4 °F 39.2 °F 93% 29.74 in 10.0 mi SSE 6.9 mph - N/A   Overcast
1:35 AM 41.0 °F 38.0 °F 39.2 °F 93% 29.74 in 10.0 mi South 4.6 mph - N/A   Overcast
1:55 AM 41.0 °F 36.4 °F 39.2 °F 93% 29.75 in 10.0 mi South 6.9 mph - N/A   Overcast
2:15 AM 41.0 °F 36.4 °F 39.2 °F 93% 29.74 in 10.0 mi South 6.9 mph - N/A   Overcast
2:35 AM 39.2 °F 33.6 °F 37.4 °F 93% 29.74 in 10.0 mi SSE 8.1 mph - N/A   Overcast
2:55 AM 39.2 °F 33.6 °F 37.4 °F 93% 29.74 in 10.0 mi SSE 8.1 mph - N/A   Overcast
3:15 AM 39.2 °F 33.0 °F 37.4 °F 93% 29.74 in 8.0 mi SSE 9.2 mph - N/A   Overcast
3:35 AM 39.2 °F 33.0 °F 37.4 °F 93% 29.74 in 10.0 mi SSE 9.2 mph - N/A   Overcast
3:55 AM 39.2 °F 34.2 °F 37.4 °F 93% 29.74 in 10.0 mi SSE 6.9 mph - N/A   Overcast
4:15 AM 39.2 °F 33.6 °F 37.4 °F 93% 29.73 in 7.0 mi SSE 8.1 mph - N/A   Overcast
4:35 AM 39.2 °F 35.0 °F 37.4 °F 93% 29.73 in 9.0 mi South 5.8 mph - N/A   Overcast
4:55 AM 39.2 °F 35.9 °F 39.2 °F 100% 29.72 in 10.0 mi SSE 4.6 mph - N/A   Overcast
5:15 AM 39.2 °F 35.0 °F 37.4 °F 93% 29.72 in 10.0 mi SSE 5.8 mph - N/A   Overcast
5:35 AM 39.2 °F 33.6 °F 37.4 °F 93% 29.72 in 10.0 mi SSE 8.1 mph - N/A   Overcast
5:55 AM 39.2 °F 33.6 °F 37.4 °F 93% 29.71 in 10.0 mi SSE 8.1 mph - N/A   Overcast
6:15 AM 39.2 °F 33.6 °F 37.4 °F 93% 29.70 in 9.0 mi South 8.1 mph - N/A   Overcast
6:35 AM 39.2 °F 34.2 °F 37.4 °F 93% 29.70 in 10.0 mi South 6.9 mph - N/A   Overcast
6:55 AM 39.2 °F 33.6 °F 37.4 °F 93% 29.69 in 10.0 mi South 8.1 mph - N/A   Overcast
7:15 AM 41.0 °F 36.4 °F 39.2 °F 93% 29.69 in 9.0 mi South 6.9 mph - N/A   Overcast
7:35 AM 41.0 °F 35.8 °F 37.4 °F 87% 29.69 in 7.0 mi SSE 8.1 mph - N/A   Overcast
7:55 AM 41.0 °F 35.2 °F 37.4 °F 87% 29.69 in 9.0 mi South 9.2 mph - N/A   Overcast
8:15 AM 41.0 °F 35.8 °F 37.4 °F 87% 29.69 in 10.0 mi South 8.1 mph - N/A   Overcast
8:35 AM 41.0 °F 36.4 °F 39.2 °F 93% 29.68 in 10.0 mi South 6.9 mph - N/A   Overcast
8:55 AM 41.0 °F 35.8 °F 37.4 °F 87% 29.68 in 8.0 mi South 8.1 mph - N/A Rain Light Rain
9:15 AM 41.0 °F 36.4 °F 39.2 °F 93% 29.68 in 4.0 mi SSE 6.9 mph - 0.01 in Rain Light Rain
9:35 AM 41.0 °F 37.1 °F 39.2 °F 93% 29.68 in 5.0 mi South 5.8 mph - 0.03 in Rain Light Rain
9:55 AM 41.0 °F 35.8 °F 39.2 °F 93% 29.67 in 7.0 mi SE 8.1 mph - 0.04 in Rain Light Rain
10:15 AM 41.0 °F 37.1 °F 39.2 °F 93% 29.67 in 7.0 mi SSE 5.8 mph - N/A Rain Light Rain
10:35 AM 41.0 °F 35.8 °F 39.2 °F 93% 29.67 in 7.0 mi SSE 8.1 mph - 0.01 in Rain Light Rain
10:55 AM 41.0 °F 36.4 °F 41.0 °F 100% 29.67 in 8.0 mi South 6.9 mph - 0.01 in Rain Light Rain
11:15 AM 41.0 °F 35.2 °F 41.0 °F 100% 29.66 in 6.0 mi South 9.2 mph - N/A Rain Light Rain
11:35 AM 41.0 °F 34.7 °F 41.0 °F 100% 29.66 in 10.0 mi SSE 10.4 mph - N/A   Mostly Cloudy
11:55 AM 42.8 °F 37.5 °F 41.0 °F 93% 29.66 in 10.0 mi SSE 9.2 mph 17.3 mph 0.01 in   Overcast
12:15 PM 42.8 °F 37.0 °F 41.0 °F 93% 29.65 in 10.0 mi South 10.4 mph - N/A   Overcast
12:35 PM 44.6 °F 39.7 °F 41.0 °F 87% 29.64 in 10.0 mi South 9.2 mph 17.3 mph N/A   Mostly Cloudy
12:55 PM 44.6 °F 39.2 °F 42.8 °F 93% 29.64 in 9.0 mi South 10.4 mph 17.3 mph N/A   Overcast
1:15 PM 44.6 °F 39.7 °F 42.8 °F 93% 29.63 in 10.0 mi South 9.2 mph - N/A   Overcast
1:35 PM 46.4 °F 39.8 °F 44.6 °F 93% 29.63 in 8.0 mi South 16.1 mph 20.7 mph N/A   Mostly Cloudy
1:55 PM 44.6 °F 38.4 °F 42.8 °F 93% 29.63 in 5.0 mi South 12.7 mph - N/A Rain Light Rain
2:15 PM 44.6 °F 40.2 °F 44.6 °F 100% 29.62 in 4.0 mi SSE 8.1 mph 21.9 mph N/A Rain Light Rain
2:35 PM 46.4 °F 41.9 °F 44.6 °F 93% 29.61 in 3.0 mi South 9.2 mph 17.3 mph N/A Rain Light Rain
2:55 PM 46.4 °F 40.4 °F 44.6 °F 93% 29.60 in 8.0 mi South 13.8 mph - N/A Rain Light Rain
3:15 PM 46.4 °F 41.9 °F 44.6 °F 93% 29.59 in 7.0 mi South 9.2 mph - 0.01 in Rain Light Rain
3:35 PM 46.4 °F 41.5 °F 44.6 °F 93% 29.59 in 2.5 mi South 10.4 mph 16.1 mph 0.01 in Rain Light Rain
3:55 PM 46.4 °F 41.9 °F 46.4 °F 100% 29.58 in 5.0 mi South 9.2 mph - 0.01 in   Scattered Clouds
4:15 PM 46.4 °F 40.4 °F 46.4 °F 100% 29.58 in 10.0 mi South 13.8 mph 17.3 mph N/A   Overcast
4:35 PM 48.2 °F - 46.4 °F 93% 29.58 in 10.0 mi South 11.5 mph 26.5 mph N/A   Overcast
4:55 PM 48.2 °F - 46.4 °F 93% 29.57 in 10.0 mi South 15.0 mph 21.9 mph N/A   Overcast
5:15 PM 48.2 °F - 46.4 °F 93% 29.58 in 4.0 mi South 15.0 mph 25.3 mph N/A   Overcast
5:35 PM 48.2 °F - 46.4 °F 93% 29.58 in 9.0 mi South 19.6 mph 28.8 mph 0.01 in   Overcast
5:55 PM 48.2 °F - 46.4 °F 93% 29.58 in 6.0 mi South 15.0 mph 23.0 mph 0.02 in Rain Light Rain
6:15 PM 48.2 °F - 46.4 °F 93% 29.58 in 6.0 mi South 13.8 mph 19.6 mph 0.01 in   Overcast
6:35 PM 48.2 °F - 46.4 °F 93% 29.58 in 5.0 mi South 15.0 mph 26.5 mph 0.01 in Rain Light Rain
6:55 PM 48.2 °F - 46.4 °F 93% 29.59 in 7.0 mi South 13.8 mph 18.4 mph 0.03 in Rain Light Rain
7:15 PM 48.2 °F - 46.4 °F 93% 29.61 in 10.0 mi South 9.2 mph 16.1 mph N/A   Overcast
7:35 PM 48.2 °F - 46.4 °F 93% 29.61 in 10.0 mi South 11.5 mph - N/A   Overcast
7:55 PM 48.2 °F - 46.4 °F 93% 29.62 in 10.0 mi South 11.5 mph - N/A   Overcast
8:15 PM 48.2 °F - 48.2 °F 100% 29.64 in 10.0 mi South 9.2 mph 16.1 mph N/A   Overcast
8:35 PM 48.2 °F - 48.2 °F 100% 29.67 in 5.0 mi SSW 6.9 mph - 0.01 in   Overcast
9:55 PM 48.2 °F - 46.4 °F 93% 29.75 in 10.0 mi SW 9.2 mph - N/A   Overcast
10:15 PM 48.2 °F - 46.4 °F 93% 29.76 in 6.0 mi SW 9.2 mph - N/A   Overcast
10:35 PM 48.2 °F - 44.6 °F 87% 29.77 in 7.0 mi SW 8.1 mph - N/A   Overcast
10:55 PM 48.2 °F - 44.6 °F 87% 29.78 in 8.0 mi SSW 6.9 mph - N/A   Overcast
11:15 PM 48.2 °F - 44.6 °F 87% 29.79 in 8.0 mi SW 5.8 mph - N/A   Overcast
11:35 PM 48.2 °F - 44.6 °F 87% 29.80 in 9.0 mi South 6.9 mph - N/A   Overcast
11:55 PM 48.2 °F - 46.4 °F 93% 29.80 in 3.0 mi South 5.8 mph - 0.01 in Rain Light Rain